Time,TemperatureF,DewpointF,PressureIn,WindDirection,WindDirectionDegrees,WindSpeedMPH,WindSpeedGustMPH,Humidity,HourlyPrecipIn,Conditions,Clouds,dailyrainin,SolarRadiationWatts/m^2,SoftwareType,DateUTC
2013-05-05 00:01:00,65.2,33.0,29.85,WNW,302,2.0,5.0,30,0.00,,---,0.00,0.00,VWS V14.00,2013-05-05 05:01:00,
2013-05-05 00:06:00,65.1,32.9,29.85,WNW,302,0.0,4.0,30,0.00,,---,0.00,0.00,VWS V14.00,2013-05-05 05:06:00,
2013-05-05 00:11:00,65.0,32.8,29.85,WNW,302,2.0,5.0,30,0.00,,---,0.00,0.00,VWS V14.00,2013-05-05 05:11:00,
2013-05-05 00:16:00,64.9,33.6,29.85,WNW,302,0.0,5.0,31,0.00,,---,0.00,0.00,VWS V14.00,2013-05-05 05:16:00,
2013-05-05 00:21:00,64.8,33.5,29.85,WNW,302,0.0,9.0,31,0.00,,---,0.00,0.00,VWS V14.00,2013-05-05 05:21:00,
2013-05-05 00:26:00,64.8,33.5,29.85,WNW,302,2.0,7.0,31,0.00,,---,0.00,0.00,VWS V14.00,2013-05-05 05:26:00,
2013-05-05 00:31:00,64.7,33.4,29.85,WNW,302,4.0,7.0,31,0.00,,---,0.00,0.00,VWS V14.00,2013-05-05 05:31:00,
2013-05-05 00:36:00,64.6,33.3,29.85,WNW,302,5.0,7.0,31,0.00,,---,0.00,0.00,VWS V14.00,2013-05-05 05:36:00,
2013-05-05 00:41:00,64.4,33.1,29.85,WNW,302,2.0,7.0,31,0.00,,---,0.00,0.00,VWS V14.00,2013-05-05 05:41:00,
2013-05-05 00:46:00,64.1,34.4,29.85,WNW,302,0.0,2.0,33,0.00,,---,0.00,0.00,VWS V14.00,2013-05-05 05:46:00,
2013-05-05 00:51:00,63.8,34.2,29.85,WNW,302,2.0,5.0,33,0.00,,---,0.00,0.00,VWS V14.00,2013-05-05 05:51:00,
2013-05-05 00:56:00,63.4,33.8,29.85,WNW,302,0.0,5.0,33,0.00,,---,0.00,0.00,VWS V14.00,2013-05-05 05:56:00,
2013-05-05 01:01:00,63.2,34.4,29.85,WNW,302,0.0,5.0,34,0.00,,---,0.00,0.00,VWS V14.00,2013-05-05 06:01:00,
2013-05-05 01:06:00,62.9,34.1,29.85,WNW,302,0.0,5.0,34,0.00,,---,0.00,0.00,VWS V14.00,2013-05-05 06:06:00,
2013-05-05 01:11:00,62.6,33.1,29.85,WNW,302,4.0,5.0,33,0.00,,---,0.00,0.00,VWS V14.00,2013-05-05 06:11:00,
2013-05-05 01:16:00,62.6,33.1,29.85,WNW,302,0.0,5.0,33,0.00,,---,0.00,0.00,VWS V14.00,2013-05-05 06:16:00,
2013-05-05 01:21:00,62.5,33.8,29.85,WNW,302,1.0,6.0,34,0.00,,---,0.00,0.00,VWS V14.00,2013-05-05 06:21:00,
2013-05-05 01:26:00,62.4,33.7,29.85,WNW,302,0.0,4.0,34,0.00,,---,0.00,0.00,VWS V14.00,2013-05-05 06:26:00,
2013-05-05 01:31:00,62.3,34.3,29.85,WNW,302,0.0,4.0,35,0.00,,---,0.00,0.00,VWS V14.00,2013-05-05 06:31:00,
2013-05-05 01:36:00,62.0,33.3,29.85,WNW,302,4.0,5.0,34,0.00,,---,0.00,0.00,VWS V14.00,2013-05-05 06:36:00,
2013-05-05 01:41:00,62.1,33.4,29.85,WNW,302,1.0,5.0,34,0.00,,---,0.00,0.00,VWS V14.00,2013-05-05 06:41:00,
2013-05-05 01:46:00,62.0,34.1,29.85,WNW,302,1.0,4.0,35,0.00,,---,0.00,0.00,VWS V14.00,2013-05-05 06:46:00,
2013-05-05 01:51:00,61.8,33.9,29.85,WNW,302,1.0,4.0,35,0.00,,---,0.00,0.00,VWS V14.00,2013-05-05 06:51:00,
2013-05-05 01:56:00,61.6,33.7,29.85,WNW,302,2.0,4.0,35,0.00,,---,0.00,0.00,VWS V14.00,2013-05-05 06:56:00,
2013-05-05 02:01:00,61.4,33.5,29.85,WNW,302,0.0,4.0,35,0.00,,---,0.00,0.00,VWS V14.00,2013-05-05 07:01:00,
2013-05-05 02:06:00,61.3,34.1,29.85,WNW,302,0.0,2.0,36,0.00,,---,0.00,0.00,VWS V14.00,2013-05-05 07:06:00,
2013-05-05 02:11:00,61.1,33.3,29.85,WNW,302,0.0,2.0,35,0.00,,---,0.00,0.00,VWS V14.00,2013-05-05 07:11:00,
2013-05-05 02:16:00,61.0,33.2,29.85,WNW,302,0.0,4.0,35,0.00,,---,0.00,0.00,VWS V14.00,2013-05-05 07:16:00,
2013-05-05 02:21:00,60.9,33.1,29.85,WNW,302,1.0,4.0,35,0.00,,---,0.00,0.00,VWS V14.00,2013-05-05 07:21:00,
2013-05-05 02:26:00,60.9,33.1,29.85,WNW,302,2.0,5.0,35,0.00,,---,0.00,0.00,VWS V14.00,2013-05-05 07:26:00,
2013-05-05 02:31:00,60.9,33.8,29.85,WNW,302,2.0,5.0,36,0.00,,---,0.00,0.00,VWS V14.00,2013-05-05 07:31:00,
2013-05-05 02:36:00,60.9,33.8,29.84,WNW,302,1.0,2.0,36,0.00,,---,0.00,0.00,VWS V14.00,2013-05-05 07:36:00,
2013-05-05 02:41:00,60.8,33.7,29.84,WNW,302,1.0,2.0,36,0.00,,---,0.00,0.00,VWS V14.00,2013-05-05 07:41:00,
2013-05-05 02:46:00,60.6,33.5,29.84,WNW,302,1.0,4.0,36,0.00,,---,0.00,0.00,VWS V14.00,2013-05-05 07:46:00,
2013-05-05 02:51:00,60.5,33.4,29.84,WNW,302,1.0,4.0,36,0.00,,---,0.00,0.00,VWS V14.00,2013-05-05 07:51:00,
2013-05-05 02:56:00,60.3,33.9,29.84,WNW,302,0.0,4.0,37,0.00,,---,0.00,0.00,VWS V14.00,2013-05-05 07:56:00,
2013-05-05 03:01:00,60.2,33.8,29.84,WNW,302,1.0,4.0,37,0.00,,---,0.00,0.00,VWS V14.00,2013-05-05 08:01:00,
2013-05-05 03:06:00,60.1,33.8,29.84,WNW,302,2.0,4.0,37,0.00,,---,0.00,0.00,VWS V14.00,2013-05-05 08:06:00,
2013-05-05 03:11:00,60.0,33.7,29.84,WNW,302,4.0,5.0,37,0.00,,---,0.00,0.00,VWS V14.00,2013-05-05 08:11:00,
2013-05-05 03:16:00,60.0,33.7,29.84,WNW,302,0.0,4.0,37,0.00,,---,0.00,0.00,VWS V14.00,2013-05-05 08:16:00,
2013-05-05 03:21:00,59.9,34.2,29.84,WNW,302,0.0,4.0,38,0.00,,---,0.00,0.00,VWS V14.00,2013-05-05 08:21:00,
2013-05-05 03:26:00,59.8,34.8,29.84,WNW,302,0.0,0.0,39,0.00,,---,0.00,0.00,VWS V14.00,2013-05-05 08:26:00,
2013-05-05 03:31:00,59.6,35.9,29.84,WNW,302,0.0,0.0,41,0.00,,---,0.00,0.00,VWS V14.00,2013-05-05 08:31:00,
2013-05-05 03:36:00,59.2,35.5,29.85,WNW,302,0.0,0.0,41,0.00,,---,0.00,0.00,VWS V14.00,2013-05-05 08:36:00,
2013-05-05 03:41:00,58.8,34.5,29.85,WNW,302,0.0,0.0,40,0.00,,---,0.00,0.00,VWS V14.00,2013-05-05 08:41:00,
2013-05-05 03:46:00,58.4,34.8,29.85,WNW,302,0.0,0.0,41,0.00,,---,0.00,0.00,VWS V14.00,2013-05-05 08:46:00,
2013-05-05 03:51:00,58.0,34.5,29.85,WNW,302,0.0,0.0,41,0.00,,---,0.00,0.00,VWS V14.00,2013-05-05 08:51:00,
2013-05-05 03:56:00,57.7,34.8,29.85,WNW,302,0.0,0.0,42,0.00,,---,0.00,0.00,VWS V14.00,2013-05-05 08:56:00,
2013-05-05 04:01:00,57.3,34.4,29.85,WNW,302,0.0,0.0,42,0.00,,---,0.00,0.00,VWS V14.00,2013-05-05 09:01:00,
2013-05-05 04:06:00,56.9,34.7,29.86,WNW,302,1.0,1.0,43,0.00,,---,0.00,0.00,VWS V14.00,2013-05-05 09:06:00,
2013-05-05 04:11:00,56.4,34.8,29.86,WNW,302,0.0,1.0,44,0.00,,---,0.00,0.00,VWS V14.00,2013-05-05 09:11:00,
2013-05-05 04:16:00,56.0,35.0,29.86,WNW,302,0.0,0.0,45,0.00,,---,0.00,0.00,VWS V14.00,2013-05-05 09:16:00,
2013-05-05 04:21:00,55.6,35.2,29.86,WNW,302,0.0,0.0,46,0.00,,---,0.00,0.00,VWS V14.00,2013-05-05 09:21:00,
2013-05-05 04:26:00,55.1,35.8,29.86,WNW,302,0.0,0.0,48,0.00,,---,0.00,0.00,VWS V14.00,2013-05-05 09:26:00,
2013-05-05 04:31:00,54.7,35.4,29.86,WNW,302,0.0,0.0,48,0.00,,---,0.00,0.00,VWS V14.00,2013-05-05 09:31:00,
2013-05-05 04:36:00,54.4,35.7,29.86,WNW,302,0.0,0.0,49,0.00,,---,0.00,0.00,VWS V14.00,2013-05-05 09:36:00,
2013-05-05 04:41:00,53.9,35.2,29.86,WNW,302,0.0,2.0,49,0.00,,---,0.00,0.00,VWS V14.00,2013-05-05 09:41:00,
2013-05-05 04:46:00,53.6,35.4,29.87,WNW,302,0.0,0.0,50,0.00,,---,0.00,0.00,VWS V14.00,2013-05-05 09:46:00,
2013-05-05 04:51:00,53.2,35.6,29.87,WNW,302,0.0,1.0,51,0.00,,---,0.00,0.00,VWS V14.00,2013-05-05 09:51:00,
2013-05-05 04:56:00,52.9,35.3,29.88,WNW,302,0.0,1.0,51,0.00,,---,0.00,0.00,VWS V14.00,2013-05-05 09:56:00,
2013-05-05 05:01:00,52.7,35.6,29.88,WNW,302,0.0,1.0,52,0.00,,---,0.00,0.00,VWS V14.00,2013-05-05 10:01:00,
2013-05-05 05:06:00,52.4,35.8,29.88,WNW,302,0.0,0.0,53,0.00,,---,0.00,0.00,VWS V14.00,2013-05-05 10:06:00,
2013-05-05 05:11:00,52.2,35.1,29.88,WNW,302,0.0,2.0,52,0.00,,---,0.00,0.00,VWS V14.00,2013-05-05 10:11:00,
2013-05-05 05:16:00,52.0,34.5,29.88,WNW,303,4.0,6.0,51,0.00,,---,0.00,0.00,VWS V14.00,2013-05-05 10:16:00,
2013-05-05 05:21:00,52.0,34.0,29.89,WNW,302,6.0,6.0,50,0.00,,---,0.00,0.00,VWS V14.00,2013-05-05 10:21:00,
2013-05-05 05:26:00,52.2,33.6,29.89,WNW,302,0.0,7.0,49,0.00,,---,0.00,0.00,VWS V14.00,2013-05-05 10:26:00,
2013-05-05 05:31:00,52.3,34.2,29.89,WNW,302,0.0,7.0,50,0.00,,---,0.00,0.00,VWS V14.00,2013-05-05 10:31:00,
2013-05-05 05:36:00,52.2,34.1,29.89,WNW,302,2.0,4.0,50,0.00,,---,0.00,0.00,VWS V14.00,2013-05-05 10:36:00,
2013-05-05 05:41:00,52.1,34.0,29.90,WNW,302,0.0,4.0,50,0.00,,---,0.00,0.00,VWS V14.00,2013-05-05 10:41:00,
2013-05-05 05:46:00,52.1,34.5,29.90,WNW,302,0.0,0.0,51,0.00,,---,0.00,0.00,VWS V14.00,2013-05-05 10:46:00,
2013-05-05 05:51:00,52.0,34.5,29.90,WNW,302,0.0,1.0,51,0.00,,---,0.00,0.00,VWS V14.00,2013-05-05 10:51:00,
2013-05-05 05:56:00,51.7,34.7,29.90,WNW,302,0.0,0.0,52,0.00,,---,0.00,0.00,VWS V14.00,2013-05-05 10:56:00,
2013-05-05 06:01:00,51.5,34.5,29.91,WNW,302,0.0,0.0,52,0.00,,---,0.00,0.00,VWS V14.00,2013-05-05 11:01:00,
2013-05-05 06:06:00,51.2,34.7,29.91,WNW,302,1.0,2.0,53,0.00,,---,0.00,0.00,VWS V14.00,2013-05-05 11:06:00,
2013-05-05 06:11:00,50.8,33.8,29.91,WNW,302,0.0,4.0,52,0.00,,---,0.00,0.00,VWS V14.00,2013-05-05 11:11:00,
2013-05-05 06:16:00,50.5,34.0,29.91,WNW,302,2.0,4.0,53,0.00,,---,0.00,0.00,VWS V14.00,2013-05-05 11:16:00,
2013-05-05 06:21:00,50.3,34.3,29.91,WNW,302,4.0,6.0,54,0.00,,---,0.00,0.00,VWS V14.00,2013-05-05 11:21:00,
2013-05-05 06:26:00,50.1,34.1,29.92,WNW,302,4.0,5.0,54,0.00,,---,0.00,0.00,VWS V14.00,2013-05-05 11:26:00,
2013-05-05 06:31:00,50.0,34.5,29.92,WNW,302,4.0,7.0,55,0.00,,---,0.00,0.00,VWS V14.00,2013-05-05 11:31:00,
2013-05-05 06:36:00,49.9,34.4,29.93,WNW,302,4.0,8.0,55,0.00,,---,0.00,0.00,VWS V14.00,2013-05-05 11:36:00,
2013-05-05 06:41:00,49.8,34.3,29.94,WNW,302,4.0,8.0,55,0.00,,---,0.00,0.00,VWS V14.00,2013-05-05 11:41:00,
2013-05-05 06:46:00,49.7,34.7,29.94,WNW,302,4.0,9.0,56,0.00,,---,0.00,0.00,VWS V14.00,2013-05-05 11:46:00,
2013-05-05 06:51:00,49.7,35.1,29.94,WNW,302,4.0,9.0,57,0.00,,---,0.00,5.00,VWS V14.00,2013-05-05 11:51:00,
2013-05-05 06:56:00,49.8,35.6,29.94,WNW,302,7.0,9.0,58,0.00,,---,0.00,9.00,VWS V14.00,2013-05-05 11:56:00,
2013-05-05 07:01:00,49.8,35.6,29.95,WNW,302,8.0,9.0,58,0.00,,---,0.00,11.00,VWS V14.00,2013-05-05 12:01:00,
2013-05-05 07:06:00,49.7,36.0,29.95,WNW,302,4.0,8.0,59,0.00,,---,0.00,14.00,VWS V14.00,2013-05-05 12:06:00,
2013-05-05 07:11:00,49.7,36.0,29.95,WNW,302,2.0,8.0,59,0.00,,---,0.00,16.00,VWS V14.00,2013-05-05 12:11:00,
2013-05-05 07:16:00,49.6,35.9,29.96,WNW,302,4.0,8.0,59,0.00,,---,0.00,19.00,VWS V14.00,2013-05-05 12:16:00,
2013-05-05 07:21:00,49.5,36.2,29.96,WNW,302,2.0,8.0,60,0.00,,---,0.00,21.00,VWS V14.00,2013-05-05 12:21:00,
2013-05-05 07:26:00,49.4,36.5,29.97,WNW,302,4.0,6.0,61,0.00,,---,0.00,23.00,VWS V14.00,2013-05-05 12:26:00,
2013-05-05 07:31:00,49.2,36.8,29.97,WNW,302,2.0,6.0,62,0.00,,---,0.00,25.00,VWS V14.00,2013-05-05 12:31:00,
2013-05-05 07:36:00,49.0,37.0,29.97,WNW,302,0.0,6.0,63,0.00,,---,0.00,26.00,VWS V14.00,2013-05-05 12:36:00,
2013-05-05 07:41:00,48.9,37.3,29.97,WNW,302,0.0,6.0,64,0.00,,---,0.00,28.00,VWS V14.00,2013-05-05 12:41:00,
2013-05-05 07:46:00,48.9,37.3,29.98,WNW,302,0.0,6.0,64,0.00,,---,0.00,30.00,VWS V14.00,2013-05-05 12:46:00,
2013-05-05 07:51:00,49.0,37.8,29.98,WNW,302,0.0,6.0,65,0.00,,---,0.00,32.00,VWS V14.00,2013-05-05 12:51:00,
2013-05-05 07:56:00,49.0,37.8,29.98,WNW,302,0.0,4.0,65,0.00,,---,0.00,33.00,VWS V14.00,2013-05-05 12:56:00,
2013-05-05 08:01:00,49.1,37.9,29.99,WNW,302,0.0,4.0,65,0.00,,---,0.00,174.00,VWS V14.00,2013-05-05 13:01:00,
2013-05-05 08:06:00,49.2,38.0,29.99,WNW,302,0.0,0.0,65,0.00,,---,0.00,200.00,VWS V14.00,2013-05-05 13:06:00,
2013-05-05 08:11:00,49.4,38.1,29.99,WNW,302,0.0,4.0,65,0.00,,---,0.00,221.00,VWS V14.00,2013-05-05 13:11:00,
2013-05-05 08:16:00,49.7,38.4,29.99,WNW,302,0.0,0.0,65,0.00,,---,0.00,243.00,VWS V14.00,2013-05-05 13:16:00,
2013-05-05 08:21:00,50.3,39.0,29.99,WNW,302,0.0,1.0,65,0.00,,---,0.00,262.00,VWS V14.00,2013-05-05 13:21:00,
2013-05-05 08:26:00,50.8,38.7,29.99,WNW,302,4.0,5.0,63,0.00,,---,0.00,281.00,VWS V14.00,2013-05-05 13:26:00,
2013-05-05 08:31:00,51.4,38.4,29.99,WNW,302,2.0,6.0,61,0.00,,---,0.00,299.00,VWS V14.00,2013-05-05 13:31:00,
2013-05-05 08:36:00,51.9,38.5,30.00,WNW,302,1.0,4.0,60,0.00,,---,0.00,316.00,VWS V14.00,2013-05-05 13:36:00,
2013-05-05 08:41:00,52.3,38.4,30.00,WNW,302,0.0,5.0,59,0.00,,---,0.00,336.00,VWS V14.00,2013-05-05 13:41:00,
2013-05-05 08:46:00,52.8,38.5,30.00,WNW,302,6.0,6.0,58,0.00,,---,0.00,353.00,VWS V14.00,2013-05-05 13:46:00,
2013-05-05 08:51:00,53.1,38.3,30.00,WNW,302,4.0,6.0,57,0.00,,---,0.00,373.00,VWS V14.00,2013-05-05 13:51:00,
2013-05-05 08:56:00,53.3,38.5,30.00,WNW,302,0.0,4.0,57,0.00,,---,0.00,392.00,VWS V14.00,2013-05-05 13:56:00,
2013-05-05 09:01:00,53.6,38.8,30.00,WNW,302,2.0,5.0,57,0.00,,---,0.00,411.00,VWS V14.00,2013-05-05 14:01:00,
2013-05-05 09:06:00,54.0,39.1,30.00,WNW,302,2.0,5.0,57,0.00,,---,0.00,429.00,VWS V14.00,2013-05-05 14:06:00,
2013-05-05 09:11:00,54.2,38.9,30.00,WNW,302,5.0,6.0,56,0.00,,---,0.00,446.00,VWS V14.00,2013-05-05 14:11:00,
2013-05-05 09:16:00,54.3,39.0,30.01,WNW,302,2.0,9.0,56,0.00,,---,0.00,464.00,VWS V14.00,2013-05-05 14:16:00,
2013-05-05 09:21:00,54.5,39.1,30.01,WNW,302,1.0,9.0,56,0.00,,---,0.00,482.00,VWS V14.00,2013-05-05 14:21:00,
2013-05-05 09:25:00,54.6,39.2,30.01,WNW,302,5.0,8.0,56,0.00,,---,0.00,499.00,VWS V14.00,2013-05-05 14:25:00,
2013-05-05 09:30:00,55.0,40.5,30.01,WNW,302,4.0,8.0,58,0.00,,---,0.00,519.00,VWS V14.00,2013-05-05 14:30:00,
2013-05-05 09:35:00,55.5,40.5,30.01,WNW,302,0.0,5.0,57,0.00,,---,0.00,534.00,VWS V14.00,2013-05-05 14:35:00,
2013-05-05 09:40:00,56.0,40.5,30.01,WNW,302,6.0,8.0,56,0.00,,---,0.00,550.00,VWS V14.00,2013-05-05 14:40:00,
2013-05-05 09:45:00,56.1,41.1,30.02,WNW,302,0.0,6.0,57,0.00,,---,0.00,570.00,VWS V14.00,2013-05-05 14:45:00,
2013-05-05 09:50:00,56.5,41.0,30.01,WNW,302,8.0,8.0,56,0.00,,---,0.00,585.00,VWS V14.00,2013-05-05 14:50:00,
2013-05-05 09:55:00,56.7,40.7,30.01,WNW,302,5.0,7.0,55,0.00,,---,0.00,603.00,VWS V14.00,2013-05-05 14:55:00,
2013-05-05 10:00:00,56.9,40.9,30.01,WNW,302,7.0,8.0,55,0.00,,---,0.00,621.00,VWS V14.00,2013-05-05 15:00:00,
2013-05-05 10:05:00,57.0,40.5,30.01,WNW,302,5.0,12.0,54,0.00,,---,0.00,635.00,VWS V14.00,2013-05-05 15:05:00,
2013-05-05 10:10:00,57.1,41.6,30.01,WNW,302,0.0,12.0,56,0.00,,---,0.00,650.00,VWS V14.00,2013-05-05 15:10:00,
2013-05-05 10:15:00,57.3,40.8,30.02,WNW,302,9.0,9.0,54,0.00,,---,0.00,666.00,VWS V14.00,2013-05-05 15:15:00,
2013-05-05 10:20:00,57.5,41.5,30.01,WNW,302,2.0,12.0,55,0.00,,---,0.00,682.00,VWS V14.00,2013-05-05 15:20:00,
2013-05-05 10:25:00,57.7,42.1,30.01,WNW,302,7.0,7.0,56,0.00,,---,0.00,698.00,VWS V14.00,2013-05-05 15:25:00,
2013-05-05 10:30:00,58.0,41.9,30.01,WNW,296,2.0,11.0,55,0.00,,---,0.00,714.00,VWS V14.00,2013-05-05 15:30:00,
2013-05-05 10:35:00,58.2,42.1,30.01,WNW,302,2.0,9.0,55,0.00,,---,0.00,726.00,VWS V14.00,2013-05-05 15:35:00,
2013-05-05 10:40:00,58.5,42.9,30.01,WNW,296,2.0,12.0,56,0.00,,---,0.00,740.00,VWS V14.00,2013-05-05 15:40:00,
2013-05-05 10:45:00,59.1,43.0,30.01,WNW,296,5.0,11.0,55,0.00,,---,0.00,754.00,VWS V14.00,2013-05-05 15:45:00,
2013-05-05 10:50:00,59.5,42.9,30.01,WNW,297,6.0,11.0,54,0.00,,---,0.00,766.00,VWS V14.00,2013-05-05 15:50:00,
2013-05-05 10:55:00,59.5,42.9,30.01,WNW,302,6.0,14.0,54,0.00,,---,0.00,782.00,VWS V14.00,2013-05-05 15:55:00,
2013-05-05 11:00:00,59.6,43.0,30.01,WNW,302,2.0,14.0,54,0.00,,---,0.00,796.00,VWS V14.00,2013-05-05 16:00:00,
2013-05-05 11:05:00,60.2,43.0,30.01,WNW,302,5.0,8.0,53,0.00,,---,0.00,809.00,VWS V14.00,2013-05-05 16:05:00,
2013-05-05 11:10:00,60.7,43.0,30.01,WNW,302,5.0,11.0,52,0.00,,---,0.00,823.00,VWS V14.00,2013-05-05 16:10:00,
2013-05-05 11:15:00,60.9,43.2,30.01,WNW,302,4.0,9.0,52,0.00,,---,0.00,833.00,VWS V14.00,2013-05-05 16:15:00,
2013-05-05 11:20:00,61.2,43.0,30.01,WNW,302,4.0,12.0,51,0.00,,---,0.00,842.00,VWS V14.00,2013-05-05 16:20:00,
2013-05-05 11:25:00,61.5,44.2,30.01,WNW,299,15.0,15.0,53,0.00,,---,0.00,856.00,VWS V14.00,2013-05-05 16:25:00,
2013-05-05 11:30:00,61.8,44.0,30.01,WNW,300,7.0,15.0,52,0.00,,---,0.00,867.00,VWS V14.00,2013-05-05 16:30:00,
2013-05-05 11:35:00,62.0,44.2,30.01,WNW,297,9.0,13.0,52,0.00,,---,0.00,877.00,VWS V14.00,2013-05-05 16:35:00,
2013-05-05 11:40:00,62.5,43.6,30.01,WNW,298,8.0,13.0,50,0.00,,---,0.00,889.00,VWS V14.00,2013-05-05 16:40:00,
2013-05-05 11:45:00,62.8,43.9,30.01,WNW,292,5.0,14.0,50,0.00,,---,0.00,902.00,VWS V14.00,2013-05-05 16:45:00,
2013-05-05 11:50:00,63.1,44.7,30.01,WNW,295,5.0,15.0,51,0.00,,---,0.00,907.00,VWS V14.00,2013-05-05 16:50:00,
2013-05-05 11:55:00,63.6,44.6,30.01,WNW,295,7.0,12.0,50,0.00,,---,0.00,914.00,VWS V14.00,2013-05-05 16:55:00,
2013-05-05 12:00:00,63.9,44.4,30.00,WNW,294,7.0,12.0,49,0.00,,---,0.00,926.00,VWS V14.00,2013-05-05 17:00:00,
2013-05-05 12:05:00,63.9,43.8,30.00,WNW,292,9.0,14.0,48,0.00,,---,0.00,933.00,VWS V14.00,2013-05-05 17:05:00,
2013-05-05 12:10:00,64.1,44.6,30.00,WNW,292,6.0,14.0,49,0.00,,---,0.00,942.00,VWS V14.00,2013-05-05 17:10:00,
2013-05-05 12:15:00,64.4,43.2,30.01,WNW,292,5.0,9.0,46,0.00,,---,0.00,954.00,VWS V14.00,2013-05-05 17:15:00,
2013-05-05 12:20:00,64.8,43.0,30.00,WNW,293,12.0,12.0,45,0.00,,---,0.00,958.00,VWS V14.00,2013-05-05 17:20:00,
2013-05-05 12:25:00,65.1,43.8,30.00,West,279,11.0,16.0,46,0.00,,---,0.00,963.00,VWS V14.00,2013-05-05 17:25:00,
2013-05-05 12:30:00,65.2,43.9,30.00,West,280,8.0,16.0,46,0.00,,---,0.00,969.00,VWS V14.00,2013-05-05 17:30:00,
2013-05-05 12:35:00,65.4,42.9,30.00,West,281,7.0,15.0,44,0.00,,---,0.00,977.00,VWS V14.00,2013-05-05 17:35:00,
2013-05-05 12:40:00,65.6,42.5,30.00,WNW,287,2.0,15.0,43,0.00,,---,0.00,984.00,VWS V14.00,2013-05-05 17:40:00,
2013-05-05 12:45:00,66.1,43.0,29.99,WNW,292,7.0,12.0,43,0.00,,---,0.00,988.00,VWS V14.00,2013-05-05 17:45:00,
2013-05-05 12:50:00,66.5,43.9,29.99,WNW,292,6.0,16.0,44,0.00,,---,0.00,991.00,VWS V14.00,2013-05-05 17:50:00,
2013-05-05 12:55:00,66.5,43.3,29.99,WNW,292,4.0,8.0,43,0.00,,---,0.00,997.00,VWS V14.00,2013-05-05 17:55:00,
2013-05-05 13:00:00,66.5,43.9,29.98,WNW,291,7.0,9.0,44,0.00,,---,0.00,998.00,VWS V14.00,2013-05-05 18:00:00,
2013-05-05 13:05:00,66.6,44.0,29.99,WNW,291,2.0,15.0,44,0.00,,---,0.00,1002.00,VWS V14.00,2013-05-05 18:05:00,
2013-05-05 13:10:00,66.8,44.8,29.98,WNW,290,4.0,15.0,45,0.00,,---,0.00,1007.00,VWS V14.00,2013-05-05 18:10:00,
2013-05-05 13:15:00,67.2,43.4,29.98,WNW,292,5.0,13.0,42,0.00,,---,0.00,1007.00,VWS V14.00,2013-05-05 18:15:00,
2013-05-05 13:20:00,67.4,43.5,29.97,WNW,290,5.0,13.0,42,0.00,,---,0.00,1009.00,VWS V14.00,2013-05-05 18:20:00,
2013-05-05 13:25:00,67.5,43.0,29.97,WNW,298,13.0,13.0,41,0.00,,---,0.00,1013.00,VWS V14.00,2013-05-05 18:25:00,
2013-05-05 13:30:00,67.8,43.9,29.97,WNW,296,2.0,13.0,42,0.00,,---,0.00,1013.00,VWS V14.00,2013-05-05 18:30:00,
2013-05-05 13:35:00,68.1,42.9,29.97,WNW,292,6.0,14.0,40,0.00,,---,0.00,1014.00,VWS V14.00,2013-05-05 18:35:00,
2013-05-05 13:40:00,68.3,42.4,29.97,WNW,292,5.0,14.0,39,0.00,,---,0.00,1013.00,VWS V14.00,2013-05-05 18:40:00,
2013-05-05 13:45:00,68.7,43.4,29.97,WNW,290,5.0,11.0,40,0.00,,---,0.00,1011.00,VWS V14.00,2013-05-05 18:45:00,
2013-05-05 13:50:00,69.1,43.8,29.96,WNW,291,4.0,11.0,40,0.00,,---,0.00,1013.00,VWS V14.00,2013-05-05 18:50:00,
2013-05-05 13:55:00,69.5,42.8,29.96,WNW,292,2.0,13.0,38,0.00,,---,0.00,1014.00,VWS V14.00,2013-05-05 18:55:00,
2013-05-05 14:00:00,69.6,43.6,29.96,WNW,290,4.0,13.0,39,0.00,,---,0.00,1007.00,VWS V14.00,2013-05-05 19:00:00,
2013-05-05 14:05:00,69.7,43.0,29.96,WNW,289,4.0,14.0,38,0.00,,---,0.00,1011.00,VWS V14.00,2013-05-05 19:05:00,
2013-05-05 14:10:00,70.0,43.2,29.96,WNW,289,7.0,14.0,38,0.00,,---,0.00,1005.00,VWS V14.00,2013-05-05 19:10:00,
2013-05-05 14:15:00,70.4,43.6,29.95,WNW,289,1.0,9.0,38,0.00,,---,0.00,1004.00,VWS V14.00,2013-05-05 19:15:00,
2013-05-05 14:20:00,70.6,43.8,29.95,WNW,290,1.0,13.0,38,0.00,,---,0.00,1002.00,VWS V14.00,2013-05-05 19:20:00,
2013-05-05 14:25:00,70.7,44.5,29.95,WNW,290,6.0,14.0,39,0.00,,---,0.00,998.00,VWS V14.00,2013-05-05 19:25:00,
2013-05-05 14:30:00,70.8,42.5,29.95,WNW,290,5.0,14.0,36,0.00,,---,0.00,990.00,VWS V14.00,2013-05-05 19:30:00,
2013-05-05 14:35:00,71.2,43.6,29.95,WNW,290,4.0,9.0,37,0.00,,---,0.00,984.00,VWS V14.00,2013-05-05 19:35:00,
2013-05-05 14:40:00,71.3,43.0,29.95,WNW,290,6.0,13.0,36,0.00,,---,0.00,983.00,VWS V14.00,2013-05-05 19:40:00,
2013-05-05 14:45:00,71.3,42.3,29.94,WNW,290,2.0,12.0,35,0.00,,---,0.00,976.00,VWS V14.00,2013-05-05 19:45:00,
2013-05-05 14:50:00,71.3,42.3,29.94,WNW,286,4.0,16.0,35,0.00,,---,0.00,969.00,VWS V14.00,2013-05-05 19:50:00,
2013-05-05 14:55:00,71.4,43.8,29.94,WNW,286,5.0,7.0,37,0.00,,---,0.00,963.00,VWS V14.00,2013-05-05 19:55:00,
2013-05-05 15:00:00,71.5,43.9,29.94,WNW,286,4.0,8.0,37,0.00,,---,0.00,958.00,VWS V14.00,2013-05-05 20:00:00,
2013-05-05 15:05:00,71.8,44.8,29.93,WNW,286,6.0,8.0,38,0.00,,---,0.00,947.00,VWS V14.00,2013-05-05 20:05:00,
2013-05-05 15:10:00,71.9,44.2,29.93,WNW,287,2.0,12.0,37,0.00,,---,0.00,944.00,VWS V14.00,2013-05-05 20:10:00,
2013-05-05 15:15:00,72.0,45.0,29.93,WNW,287,2.0,12.0,38,0.00,,---,0.00,933.00,VWS V14.00,2013-05-05 20:15:00,
2013-05-05 15:20:00,72.3,44.6,29.93,WNW,289,9.0,12.0,37,0.00,,---,0.00,925.00,VWS V14.00,2013-05-05 20:20:00,
2013-05-05 15:25:00,72.6,44.9,29.92,WNW,289,6.0,8.0,37,0.00,,---,0.00,919.00,VWS V14.00,2013-05-05 20:25:00,
2013-05-05 15:30:00,72.9,45.1,29.92,WNW,290,8.0,12.0,37,0.00,,---,0.00,905.00,VWS V14.00,2013-05-05 20:30:00,
2013-05-05 15:35:00,72.9,45.1,29.92,WNW,290,2.0,9.0,37,0.00,,---,0.00,896.00,VWS V14.00,2013-05-05 20:35:00,
2013-05-05 15:40:00,73.0,45.9,29.92,WNW,290,5.0,9.0,38,0.00,,---,0.00,886.00,VWS V14.00,2013-05-05 20:40:00,
2013-05-05 15:45:00,73.2,45.4,29.92,WNW,290,4.0,8.0,37,0.00,,---,0.00,874.00,VWS V14.00,2013-05-05 20:45:00,
2013-05-05 15:50:00,73.2,44.7,29.92,WNW,291,7.0,11.0,36,0.00,,---,0.00,865.00,VWS V14.00,2013-05-05 20:50:00,
2013-05-05 15:55:00,73.3,44.8,29.91,WNW,290,0.0,13.0,36,0.00,,---,0.00,851.00,VWS V14.00,2013-05-05 20:55:00,
2013-05-05 16:00:00,73.5,46.4,29.91,WNW,290,2.0,13.0,38,0.00,,---,0.00,840.00,VWS V14.00,2013-05-05 21:00:00,
2013-05-05 16:05:00,73.6,45.8,29.91,WNW,289,6.0,14.0,37,0.00,,---,0.00,826.00,VWS V14.00,2013-05-05 21:05:00,
2013-05-05 16:10:00,73.6,45.8,29.90,WNW,290,5.0,14.0,37,0.00,,---,0.00,814.00,VWS V14.00,2013-05-05 21:10:00,
2013-05-05 16:15:00,73.7,46.5,29.90,WNW,290,6.0,9.0,38,0.00,,---,0.00,802.00,VWS V14.00,2013-05-05 21:15:00,
2013-05-05 16:20:00,73.7,46.5,29.89,WNW,290,1.0,9.0,38,0.00,,---,0.00,791.00,VWS V14.00,2013-05-05 21:20:00,
2013-05-05 16:25:00,73.9,46.7,29.89,WNW,290,6.0,8.0,38,0.00,,---,0.00,777.00,VWS V14.00,2013-05-05 21:25:00,
2013-05-05 16:30:00,73.9,46.7,29.89,WNW,290,4.0,9.0,38,0.00,,---,0.00,763.00,VWS V14.00,2013-05-05 21:30:00,
2013-05-05 16:35:00,73.9,46.0,29.89,WNW,290,0.0,8.0,37,0.00,,---,0.00,747.00,VWS V14.00,2013-05-05 21:35:00,
2013-05-05 16:40:00,73.9,46.7,29.88,WNW,290,1.0,8.0,38,0.00,,---,0.00,731.00,VWS V14.00,2013-05-05 21:40:00,
2013-05-05 16:45:00,74.2,47.0,29.88,WNW,290,5.0,7.0,38,0.00,,---,0.00,717.00,VWS V14.00,2013-05-05 21:45:00,
2013-05-05 16:50:00,74.0,46.1,29.88,WNW,288,4.0,9.0,37,0.00,,---,0.00,707.00,VWS V14.00,2013-05-05 21:50:00,
2013-05-05 16:55:00,73.8,45.2,29.88,WNW,287,2.0,8.0,36,0.00,,---,0.00,694.00,VWS V14.00,2013-05-05 21:55:00,
2013-05-05 17:00:00,74.0,46.1,29.88,WNW,287,6.0,8.0,37,0.00,,---,0.00,673.00,VWS V14.00,2013-05-05 22:00:00,
2013-05-05 17:05:00,74.2,46.3,29.88,WNW,287,7.0,9.0,37,0.00,,---,0.00,657.00,VWS V14.00,2013-05-05 22:05:00,
2013-05-05 17:10:00,74.4,47.2,29.88,WNW,287,4.0,9.0,38,0.00,,---,0.00,640.00,VWS V14.00,2013-05-05 22:10:00,
2013-05-05 17:15:00,74.7,46.0,29.88,WNW,287,0.0,5.0,36,0.00,,---,0.00,622.00,VWS V14.00,2013-05-05 22:15:00,
2013-05-05 17:20:00,74.8,46.1,29.88,WNW,287,0.0,7.0,36,0.00,,---,0.00,606.00,VWS V14.00,2013-05-05 22:20:00,
2013-05-05 17:25:00,74.8,45.3,29.88,WNW,287,0.0,6.0,35,0.00,,---,0.00,591.00,VWS V14.00,2013-05-05 22:25:00,
2013-05-05 17:30:00,74.9,46.2,29.88,WNW,287,5.0,6.0,36,0.00,,---,0.00,577.00,VWS V14.00,2013-05-05 22:30:00,
2013-05-05 17:35:00,74.8,45.3,29.88,WNW,287,0.0,8.0,35,0.00,,---,0.00,557.00,VWS V14.00,2013-05-05 22:35:00,
2013-05-05 17:40:00,74.9,45.4,29.88,WNW,287,4.0,8.0,35,0.00,,---,0.00,538.00,VWS V14.00,2013-05-05 22:40:00,
2013-05-05 17:45:00,74.9,45.4,29.88,WNW,292,2.0,11.0,35,0.00,,---,0.00,522.00,VWS V14.00,2013-05-05 22:45:00,
2013-05-05 17:50:00,75.0,45.5,29.87,WNW,292,7.0,11.0,35,0.00,,---,0.00,503.00,VWS V14.00,2013-05-05 22:50:00,
2013-05-05 17:55:00,74.8,44.6,29.87,WNW,292,4.0,7.0,34,0.00,,---,0.00,487.00,VWS V14.00,2013-05-05 22:55:00,
2013-05-05 18:00:00,74.8,44.6,29.88,WNW,292,0.0,7.0,34,0.00,,---,0.00,469.00,VWS V14.00,2013-05-05 23:00:00,
2013-05-05 18:05:00,74.9,45.4,29.87,WNW,292,7.0,7.0,35,0.00,,---,0.00,450.00,VWS V14.00,2013-05-05 23:05:00,
2013-05-05 18:10:00,74.9,44.7,29.88,WNW,292,1.0,7.0,34,0.00,,---,0.00,431.00,VWS V14.00,2013-05-05 23:10:00,
2013-05-05 18:15:00,74.8,44.6,29.88,WNW,292,0.0,6.0,34,0.00,,---,0.00,410.00,VWS V14.00,2013-05-05 23:15:00,
2013-05-05 18:20:00,74.8,45.3,29.88,WNW,292,2.0,7.0,35,0.00,,---,0.00,396.00,VWS V14.00,2013-05-05 23:20:00,
2013-05-05 18:25:00,74.6,45.2,29.88,WNW,292,5.0,7.0,35,0.00,,---,0.00,374.00,VWS V14.00,2013-05-05 23:25:00,
2013-05-05 18:30:00,74.7,47.4,29.88,WNW,292,4.0,7.0,38,0.00,,---,0.00,357.00,VWS V14.00,2013-05-05 23:30:00,
2013-05-05 18:35:00,74.7,46.0,29.88,WNW,292,2.0,6.0,36,0.00,,---,0.00,338.00,VWS V14.00,2013-05-05 23:35:00,
2013-05-05 18:40:00,74.7,45.3,29.88,WNW,292,4.0,7.0,35,0.00,,---,0.00,318.00,VWS V14.00,2013-05-05 23:40:00,
2013-05-05 18:45:00,74.7,46.7,29.87,WNW,292,4.0,5.0,37,0.00,,---,0.00,299.00,VWS V14.00,2013-05-05 23:45:00,
2013-05-05 18:50:00,74.7,46.7,29.87,WNW,292,0.0,6.0,37,0.00,,---,0.00,279.00,VWS V14.00,2013-05-05 23:50:00,
2013-05-05 18:55:00,74.5,47.2,29.87,WNW,292,0.0,6.0,38,0.00,,---,0.00,260.00,VWS V14.00,2013-05-05 23:55:00,
2013-05-05 19:00:00,74.2,47.0,29.87,WNW,292,0.0,6.0,38,0.00,,---,0.00,244.00,VWS V14.00,2013-05-06 00:00:00,
2013-05-05 19:05:00,74.0,47.5,29.87,WNW,292,4.0,5.0,39,0.00,,---,0.00,223.00,VWS V14.00,2013-05-06 00:05:00,
2013-05-05 19:10:00,73.8,47.3,29.87,WNW,292,2.0,6.0,39,0.00,,---,0.00,199.00,VWS V14.00,2013-05-06 00:10:00,
2013-05-05 19:15:00,73.6,47.1,29.87,WNW,292,0.0,5.0,39,0.00,,---,0.00,174.00,VWS V14.00,2013-05-06 00:15:00,
2013-05-05 19:20:00,73.5,47.0,29.87,WNW,292,0.0,5.0,39,0.00,,---,0.00,153.00,VWS V14.00,2013-05-06 00:20:00,
2013-05-05 19:25:00,73.3,47.5,29.87,WNW,292,0.0,4.0,40,0.00,,---,0.00,130.00,VWS V14.00,2013-05-06 00:25:00,
2013-05-05 19:30:00,73.2,47.5,29.88,WNW,292,0.0,4.0,40,0.00,,---,0.00,109.00,VWS V14.00,2013-05-06 00:30:00,
2013-05-05 19:35:00,73.1,47.4,29.88,WNW,292,1.0,4.0,40,0.00,,---,0.00,93.00,VWS V14.00,2013-05-06 00:35:00,
2013-05-05 19:40:00,72.8,47.1,29.88,WNW,292,0.0,4.0,40,0.00,,---,0.00,74.00,VWS V14.00,2013-05-06 00:40:00,
2013-05-05 19:45:00,72.6,47.6,29.88,WNW,292,0.0,1.0,41,0.00,,---,0.00,58.00,VWS V14.00,2013-05-06 00:45:00,
2013-05-05 19:50:00,72.5,47.5,29.88,WNW,292,0.0,1.0,41,0.00,,---,0.00,44.00,VWS V14.00,2013-05-06 00:50:00,
2013-05-05 19:55:00,72.3,48.0,29.88,WNW,292,0.0,2.0,42,0.00,,---,0.00,33.00,VWS V14.00,2013-05-06 00:55:00,
2013-05-05 20:00:00,72.0,47.7,29.88,WNW,292,0.0,2.0,42,0.00,,---,0.00,23.00,VWS V14.00,2013-05-06 01:00:00,
2013-05-05 20:05:00,71.5,46.6,29.88,WNW,292,2.0,4.0,41,0.00,,---,0.00,16.00,VWS V14.00,2013-05-06 01:05:00,
2013-05-05 20:10:00,71.0,46.8,29.88,WNW,292,0.0,4.0,42,0.00,,---,0.00,11.00,VWS V14.00,2013-05-06 01:10:00,
2013-05-05 20:15:00,70.7,46.5,29.88,WNW,292,0.0,0.0,42,0.00,,---,0.00,5.00,VWS V14.00,2013-05-06 01:15:00,
2013-05-05 20:20:00,70.3,46.8,29.89,WNW,289,1.0,1.0,43,0.00,,---,0.00,0.00,VWS V14.00,2013-05-06 01:20:00,
2013-05-05 20:25:00,69.8,46.3,29.89,WNW,289,0.0,2.0,43,0.00,,---,0.00,0.00,VWS V14.00,2013-05-06 01:25:00,
2013-05-05 20:30:00,69.4,46.6,29.89,WNW,289,1.0,2.0,44,0.00,,---,0.00,0.00,VWS V14.00,2013-05-06 01:30:00,
2013-05-05 20:35:00,68.9,46.1,29.89,WNW,289,1.0,2.0,44,0.00,,---,0.00,0.00,VWS V14.00,2013-05-06 01:35:00,
2013-05-05 20:40:00,68.7,46.5,29.89,WNW,289,0.0,2.0,45,0.00,,---,0.00,0.00,VWS V14.00,2013-05-06 01:40:00,
2013-05-05 20:45:00,68.4,46.2,29.89,WNW,289,0.0,1.0,45,0.00,,---,0.00,0.00,VWS V14.00,2013-05-06 01:45:00,
2013-05-05 20:50:00,68.0,46.5,29.90,WNW,289,1.0,4.0,46,0.00,,---,0.00,0.00,VWS V14.00,2013-05-06 01:50:00,
2013-05-05 20:55:00,67.8,46.3,29.90,WNW,289,1.0,5.0,46,0.00,,---,0.00,0.00,VWS V14.00,2013-05-06 01:55:00,
2013-05-05 21:00:00,67.7,46.2,29.90,WNW,289,2.0,5.0,46,0.00,,---,0.00,0.00,VWS V14.00,2013-05-06 02:00:00,
2013-05-05 21:05:00,67.6,46.1,29.90,WNW,289,1.0,4.0,46,0.00,,---,0.00,0.00,VWS V14.00,2013-05-06 02:05:00,
2013-05-05 21:10:00,67.5,46.6,29.90,WNW,289,2.0,4.0,47,0.00,,---,0.00,0.00,VWS V14.00,2013-05-06 02:10:00,
2013-05-05 21:15:00,67.4,46.5,29.90,WNW,289,1.0,5.0,47,0.00,,---,0.00,0.00,VWS V14.00,2013-05-06 02:15:00,
2013-05-05 21:20:00,67.4,45.9,29.90,WNW,289,4.0,5.0,46,0.00,,---,0.00,0.00,VWS V14.00,2013-05-06 02:20:00,
2013-05-05 21:25:00,67.3,45.8,29.91,WNW,289,2.0,4.0,46,0.00,,---,0.00,0.00,VWS V14.00,2013-05-06 02:25:00,
2013-05-05 21:30:00,67.3,45.8,29.91,WNW,289,1.0,4.0,46,0.00,,---,0.00,0.00,VWS V14.00,2013-05-06 02:30:00,
2013-05-05 21:35:00,67.2,46.3,29.91,WNW,289,1.0,4.0,47,0.00,,---,0.00,0.00,VWS V14.00,2013-05-06 02:35:00,
2013-05-05 21:40:00,67.0,45.6,29.91,WNW,289,2.0,4.0,46,0.00,,---,0.00,0.00,VWS V14.00,2013-05-06 02:40:00,
2013-05-05 21:45:00,66.9,46.0,29.91,WNW,289,2.0,4.0,47,0.00,,---,0.00,0.00,VWS V14.00,2013-05-06 02:45:00,
2013-05-05 21:50:00,66.8,45.9,29.91,WNW,289,1.0,4.0,47,0.00,,---,0.00,0.00,VWS V14.00,2013-05-06 02:50:00,
2013-05-05 21:55:00,66.7,45.8,29.92,WNW,289,0.0,1.0,47,0.00,,---,0.00,0.00,VWS V14.00,2013-05-06 02:55:00,
2013-05-05 22:00:00,66.5,46.2,29.92,WNW,289,0.0,2.0,48,0.00,,---,0.00,0.00,VWS V14.00,2013-05-06 03:00:00,
2013-05-05 22:05:00,66.3,46.0,29.92,WNW,289,0.0,0.0,48,0.00,,---,0.00,0.00,VWS V14.00,2013-05-06 03:05:00,
2013-05-05 22:10:00,66.2,46.0,29.92,WNW,289,1.0,4.0,48,0.00,,---,0.00,0.00,VWS V14.00,2013-05-06 03:10:00,
2013-05-05 22:15:00,66.2,46.0,29.92,WNW,289,0.0,4.0,48,0.00,,---,0.00,0.00,VWS V14.00,2013-05-06 03:15:00,
2013-05-05 22:20:00,66.1,45.9,29.93,WNW,289,0.0,4.0,48,0.00,,---,0.00,0.00,VWS V14.00,2013-05-06 03:20:00,
2013-05-05 22:25:00,66.0,46.3,29.93,WNW,289,0.0,0.0,49,0.00,,---,0.00,0.00,VWS V14.00,2013-05-06 03:25:00,
2013-05-05 22:30:00,65.6,46.0,29.93,WNW,289,2.0,4.0,49,0.00,,---,0.00,0.00,VWS V14.00,2013-05-06 03:30:00,
2013-05-05 22:35:00,65.4,46.3,29.93,WNW,289,0.0,5.0,50,0.00,,---,0.00,0.00,VWS V14.00,2013-05-06 03:35:00,
2013-05-05 22:40:00,65.2,46.1,29.93,WNW,289,0.0,5.0,50,0.00,,---,0.00,0.00,VWS V14.00,2013-05-06 03:40:00,
2013-05-05 22:45:00,65.1,46.0,29.93,WNW,289,1.0,4.0,50,0.00,,---,0.00,0.00,VWS V14.00,2013-05-06 03:45:00,
2013-05-05 22:50:00,64.9,46.9,29.94,WNW,289,1.0,5.0,52,0.00,,---,0.00,0.00,VWS V14.00,2013-05-06 03:50:00,
2013-05-05 22:55:00,64.5,46.0,29.94,WNW,289,0.0,5.0,51,0.00,,---,0.00,0.00,VWS V14.00,2013-05-06 03:55:00,
2013-05-05 23:00:00,64.4,45.9,29.94,WNW,289,2.0,5.0,51,0.00,,---,0.00,0.00,VWS V14.00,2013-05-06 04:00:00,
2013-05-05 23:01:00,64.3,45.8,29.94,WNW,289,0.0,5.0,51,0.00,,---,0.00,0.00,VWS V14.00,2013-05-06 04:01:00,
2013-05-05 23:06:00,64.3,46.3,29.94,WNW,289,1.0,4.0,52,0.00,,---,0.00,0.00,VWS V14.00,2013-05-06 04:06:00,
2013-05-05 23:11:00,64.2,46.2,29.94,WNW,289,0.0,4.0,52,0.00,,---,0.00,0.00,VWS V14.00,2013-05-06 04:11:00,
2013-05-05 23:16:00,64.1,46.1,29.94,WNW,289,1.0,5.0,52,0.00,,---,0.00,0.00,VWS V14.00,2013-05-06 04:16:00,
2013-05-05 23:21:00,64.0,46.0,29.94,WNW,289,2.0,5.0,52,0.00,,---,0.00,0.00,VWS V14.00,2013-05-06 04:21:00,
2013-05-05 23:26:00,64.0,46.0,29.94,WNW,289,1.0,4.0,52,0.00,,---,0.00,0.00,VWS V14.00,2013-05-06 04:26:00,
2013-05-05 23:31:00,63.9,46.0,29.94,WNW,289,0.0,4.0,52,0.00,,---,0.00,0.00,VWS V14.00,2013-05-06 04:31:00,
2013-05-05 23:36:00,63.8,45.9,29.94,WNW,289,2.0,6.0,52,0.00,,---,0.00,0.00,VWS V14.00,2013-05-06 04:36:00,
2013-05-05 23:41:00,63.6,46.2,29.94,WNW,289,4.0,6.0,53,0.00,,---,0.00,0.00,VWS V14.00,2013-05-06 04:41:00,
2013-05-05 23:46:00,63.4,46.0,29.94,WNW,289,2.0,4.0,53,0.00,,---,0.00,0.00,VWS V14.00,2013-05-06 04:46:00,
2013-05-05 23:51:00,63.2,45.8,29.94,WNW,289,2.0,4.0,53,0.00,,---,0.00,0.00,VWS V14.00,2013-05-06 04:51:00,
2013-05-05 23:56:00,63.1,45.7,29.94,WNW,289,1.0,5.0,53,0.00,,---,0.00,0.00,VWS V14.00,2013-05-06 04:56:00,